• Processing (Info)

  • MPEC 2019-G07 : 2019 FP2

    The following Minor Planet Electronic Circular may be linked-to from your own Web pages, but must not otherwise be redistributed electronically.

    A form allowing access to any MPEC is at the bottom of this page.


    Read MPEC 2019-G06 Read MPEC 2019-G08


    M.P.E.C. 2019-G07                                Issued 2019 Apr. 1, 20:26 UT
    
         The Minor Planet Electronic Circulars contain information on unusual
             minor planets and routine data on comets.  They are published
        on behalf of Division F of the International Astronomical Union by the
              Minor Planet Center, Smithsonian Astrophysical Observatory,
                              Cambridge, MA 02138, U.S.A.
    
                 Prepared using the Tamkin Foundation Computer Network
    
                                  MPC@CFA.HARVARD.EDU
                URL https://www.minorplanetcenter.net/    ISSN 1523-6714
    
                                       2019 FP2
    
    Observations:
         K19F02P  C2019 01 16.60316910 08 53.518+08 04 21.66         22.7 GVEG007F51
         K19F02P  C2019 01 16.61419010 08 53.738+08 04 20.68         23.6 GVEG007F51
         K19F02P  C2019 01 16.62518410 08 53.964+08 04 19.33         23.8 GVEG007F51
         K19F02P  C2019 02 04.42718510 11 25.697+08 22 31.43         21.8 GVEG007F51
         K19F02P  C2019 02 04.43888210 11 25.495+08 22 34.22         21.1 GVEG007F51
         K19F02P  C2019 02 04.45065710 11 25.293+08 22 37.24         22.1 GVEG007F51
         K19F02P* C2019 03 31.23948 09 49 07.87 +22 45 43.6          19.9 GVEG007703
         K19F02P  C2019 03 31.24522 09 49 08.03 +22 45 54.0          19.3 GVEG007703
         K19F02P  C2019 03 31.25096 09 49 08.06 +22 46 02.9          19.8 GVEG007703
         K19F02P  C2019 03 31.25669 09 49 08.22 +22 46 12.7          20.4 GVEG007703
         K19F02P  C2019 03 31.35165 09 49 10.63 +22 48 47.8          19.9 GVEG007I52
         K19F02P  C2019 03 31.35366 09 49 10.69 +22 48 50.7          19.3 GVEG007I52
         K19F02P  C2019 03 31.35564 09 49 10.76 +22 48 54.3          19.3 GVEG007I52
         K19F02P  C2019 03 31.35821 09 49 10.81 +22 48 58.0          20.0 GVEG007I52
         K19F02P KC2019 03 31.79390709 49 33.48 +23 01 22.9          19.7 GVEG007L01
         K19F02P KC2019 03 31.79585409 49 33.53 +23 01 25.8          19.8 GVEG007L01
         K19F02P KC2019 03 31.79780209 49 33.57 +23 01 29.6          19.7 GVEG007L01
         K19F02P KC2019 03 31.80091109 49 33.66 +23 01 35.1          19.9 GVEG007L01
         K19F02P KC2019 03 31.82374009 49 34.71 +23 02 15.4          19.2 GVEG007C95
         K19F02P KC2019 03 31.82850409 49 34.93 +23 02 23.4          19.2 GVEG007C95
         K19F02P KC2019 03 31.83330909 49 35.10 +23 02 32.6          18.8 GVEG007C95
         K19F02P  C2019 03 31.88642 09 49 36.15 +23 03 57.9          19.1 VVEG007033
         K19F02P  C2019 03 31.88807 09 49 36.20 +23 04 00.7          18.9 VVEG007033
         K19F02P  C2019 03 31.88972 09 49 36.25 +23 04 03.6          19.0 VVEG007033
         K19F02P  C2019 04 01.11894 09 49 48.98 +23 10 56.7          19.8 GVEG007I52
         K19F02P  C2019 04 01.12085 09 49 49.05 +23 11 00.6          19.4 GVEG007I52
         K19F02P  C2019 04 01.12399 09 49 49.15 +23 11 05.7          19.3 GVEG007I52
         K19F02P  C2019 04 01.12588 09 49 49.19 +23 11 09.2          19.9 GVEG007I52
         K19F02P KC2019 04 01.13451 09 49 49.11 +23 11 27.5                oEG007711
         K19F02P KC2019 04 01.13676409 49 48.13 +23 11 23.0          20.0 VuEG007H21
         K19F02P KC2019 04 01.13755 09 49 49.16 +23 11 33.2                oEG007711
         K19F02P KC2019 04 01.14056 09 49 49.27 +23 11 37.9                oEG007711
         K19F02P KC2019 04 01.14066309 49 48.23 +23 11 29.7          20.0 VuEG007H21
         K19F02P KC2019 04 01.14456909 49 48.34 +23 11 36.5          19.9 VuEG007H21
         K19F02P KC2019 04 01.14925609 49 48.47 +23 11 44.6          19.9 VuEG007H21
         K19F02P  C2019 04 01.57928 09 50 08.58 +23 24 20.6          19.9 RrEG007P93
         K19F02P  C2019 04 01.58388 09 50 08.73 +23 24 28.3          20.0 RrEG007P93
         K19F02P  C2019 04 01.58847 09 50 08.91 +23 24 36.0          19.9 RrEG007P93
         K19F02P  C2019 04 01.59307 09 50 09.07 +23 24 43.5          20.1 RrEG007P93
    
    Observer details:
    033 Karl Schwarzschild Observatory, Tautenburg.  Observers U. Laux,
        B. Stecklum.  Measurer B. Stecklum.  1.34-m f/3 Schmidt + CCD.
    703 Catalina Sky Survey.  Observer R. A. Kowalski.  Measurers B. M. Africano,
        E. J. Christensen, G. A. Farneth, D. C. Fuls, A. R. Gibbs, A. D. Grauer,
        H. Groeller, R. A. Kowalski, S. M. Larson, G. J. Leonard, T. A. Pruyne,
        R. L. Seaman, F. C. Shelly.  0.68-m Schmidt + 10K CCD.
    711 McDonald Observatory, Fort Davis.  Observer J. G. Ries.  2.1-m reflector
        + CCD + focal reducer.
    C95 SATINO Remote Observatory, Haute Provence.  Observer J. Jahn.  0.60-m
        f/3.2 Newtonian reflector + CCD.
    F51 Pan-STARRS 1, Haleakala.  Observers J. Bulger, K. Chambers, T. Lowe,
        E. Magnier, A. Schultz, M. Willman.  Measurers S. Chastel, M. Huber,
        Y. Ramanjooloo, R. Wainscoat, R. Weryk.  1.8-m Ritchey-Chretien + CCD.
    H21 Astronomical Research Observatory, Westfield.  Observer R. Holmes.
        Measurers S. Foglia, L. Buzzi, T. Linder, R. Holmes.  0.61-m f/4.5
        astrograph + CCD.
    I52 Steward Observatory, Mt. Lemmon Station.  Observer H. Groeller.
        Measurers B. M. Africano, E. J. Christensen, G. A. Farneth, D. C. Fuls,
        A. R. Gibbs, A. D. Grauer, H. Groeller, R. A. Kowalski, S. M. Larson,
        G. J. Leonard, T. A. Pruyne, R. L. Seaman, F. C. Shelly.  1.0-m reflector
        + CCD.
    L01 Visnjan Observatory, Tican.  Observer K. Korlevic.  1.0-m f/2.9 reflector
        + CCD.
    P93 Space Tracking and Communications Center, JAXA.  Observers S. Urakawa,
        T. Nimura.  1.0-m f/3.0 reflector + CCD.
    
    Orbital elements:
    2019 FP2                                                 Earth MOID = 0.0543 AU
    Epoch 2019 Apr. 27.0 TT = JDT 2458600.5                 MPC
    M 358.60600              (2000.0)            P               Q
    n   0.28232087     Peri.   61.31207     -0.77522764     +0.63139160
    a   2.3013043      Node   157.82355     -0.59582077     -0.72081143
    e   0.5491392      Incl.    2.90821     -0.20980876     -0.28596420
    P   3.49           H   22.1           G   0.15           U   5
    Residuals in seconds of arc
    190116 F51  0.0   0.0     190331 I52  0.2-  0.3-    190401 I52  0.1-  0.3-
    190116 F51  0.0   0.1+    190331 L01  0.1-  0.3+    190401 I52  0.2-  0.1-
    190116 F51  0.1+  0.1-    190331 L01  0.1-  0.2-    190401 711  0.6+  0.4+
    190204 F51  0.1+  0.0     190331 L01  0.3-  0.1+    190401 H21  0.3-  0.1-
    190204 F51  0.0   0.1-    190331 L01  0.2-  0.2+    190401 711  0.2+  0.7+
    190204 F51  0.1-  0.0     190331 C95  0.0   0.2-    190401 711  0.7+  0.1+
    190331 703  0.6-  0.2-    190331 C95  1.2+  0.5-    190401 H21  0.4-  0.2-
    190331 703  0.0   0.6+    190331 C95  1.8+  0.2+    190401 H21  0.4-  0.1-
    190331 703  1.2-  0.1-    190331 033  0.2-  0.1-    190401 H21  0.3-  0.1-
    190331 703  0.6-  0.2+    190331 033  0.2-  0.1-    190401 P93  0.1-  0.2+
    190331 I52  0.1+  0.1+    190331 033  0.2-  0.0     190401 P93  0.0   0.1+
    190331 I52  0.1+  0.3-    190401 I52  0.5-  0.2-    190401 P93  0.5+  0.0
    190331 I52  0.2+  0.2+    190401 I52  0.3-  0.3+    190401 P93  0.7+  0.4-
    
    Ephemeris:
    2019 FP2                 a,e,i = 2.30, 0.55, 3                   q = 1.0376
    Date    TT    R. A. (2000) Decl.     Delta      r     Elong.  Phase     V
    2019 03 02    09 58 21.3 +12 22 34   0.2870  1.2718   166.5    10.4    20.6
    ...
    2019 03 17    09 48 34.1 +16 56 11   0.2131  1.1802   147.6    26.8    20.3
    ...
    2019 03 25    09 46 56.7 +20 00 16   0.1810  1.1381   138.0    35.9    20.1
    ...
    2019 03 31    09 48 59.3 +22 39 06   0.1589  1.1103   131.4    42.4    20.0
    2019 04 01    09 49 41.9 +23 07 40   0.1553  1.1061   130.4    43.5    20.0
    2019 04 02    09 50 31.9 +23 36 55   0.1518  1.1019   129.4    44.5    19.9
    ...
    2019 04 08    09 58 41.7 +26 49 11   0.1312  1.0794   123.7    50.5    19.7
    ...
    2019 04 16    10 21 57.4 +32 05 46   0.1051  1.0565   117.8    57.1    19.4
    ...
    2019 05 01    12 42 49.8 +44 30 14   0.06562 1.0376   115.8    61.0    18.4
    
    A. U. Tomatic                (C) Copyright 2019 MPC           M.P.E.C. 2019-G07
    

    Read MPEC 2019-G06 Read MPEC 2019-G08


    MPEC number:

    Enter an MPEC number in one of the following forms:

    • 1997-B01 (the full form)
    • J97B01 (the packed version of the full form)
    • B01 (the abbreviated form)